Tracking 21476 objects as of 30-Sep-2020
HD Live streaming from Space Station
objects crossing your sky now

COSMOS 1275 DEB

Track COSMOS 1275 DEB now!
10-day predictions


NORAD ID: 13816
Int'l Code: 1981-053HP
Perigee: 852.3 km
Apogee: 1,087.2 km
Inclination: 83.0 °
Period: 104.3 minutes
Semi major axis: 7340 km
RCS: 0.0104 m2 (small)
Launch date: June 4, 1981
Source: Commonwealth of Independent States (former USSR) (CIS)
Launch site: PLESETSK MISSILE AND SPACE COMPLEX (PKMTR)

Note: This is SATELLITE DEBRIS
aabbcc
Your satellite tracking list
Your tracking list is empty




NASA's NSSDC Master Catalog

Two Line Element Set (TLE):
1 13816U 81053HL  20273.54926928 +.00000578 +00000-0 +48981-3 0  9998
2 13816 082.9883 191.2073 0159992 344.4861 189.4513 13.80368832871758
Source of the keplerian elements: AFSPC